"Pseudo-MPEC" for P10TUSh

Created 2019 Nov 13 9:07:09 UT using Find_Orb

Click here for an explanation of pseudo-MPECs

 
 Astrometry: 
     P10TUSh  C2019 11 02e);J-k#0:!Prn=fx`=uiG1CW+8qP#UF'b7+LQ`$/sAstrometryjF51
     P10TUSh  C2019 11 02iq*,Gs.2MQi(6'yf^T2fp$KB/1y3trWdD;pk5$redacted;W/FDEF51
     P10TUSh  C2019 11 02(xff,R,#0Wy@CR-=%?'IZRnI0%f@Kd?-_tI8Zl%Bi2*,7Ih:]@baF51
     P10TUSh  C2019 11 02PgMJ8kD.)N1uclick.7xTptC($Ps'r3?8uBb-GURkU`t)KherepkF51
     P10TUSh  C2019 11 05.32106 03 23 52.94 +28 40 53.4    ~B58b 21.8 GVNEOCPG96
     P10TUSh  C2019 11 05.32619 03 23 52.03 +28 41 04.7    ~B58b 22.1 GVNEOCPG96
     P10TUSh  C2019 11 05.33132 03 23 51.06 +28 41 15.0    ~B58b 21.3 GVNEOCPG96
     P10TUSh  C2019 11 05.33645 03 23 50.12 +28 41 25.7    ~B58b 21.9 GVNEOCPG96
     P10TUSh  C2019 11 05bnF3Bi;!s5(k!]x':h'IAr$'la-SofordS(-Bx.gjailEAM%\,_]F52
     P10TUSh  C2019 11 05XdJ%KA2A+e#lb!XBE?27-dCi))=explanationaG\fL--9(lX`_@F52

Station data:
(F51) Pan-STARRS 1, Haleakala  (N20.707235 W156.255910)  US/Hawaii.
   Observers N. Primak, A. Schultz, S. Watters, J. Thiel, T. Goggia. Measurer
   PS1 Science Consortium. 1.8-m Ritchey-Chrétien + CCD.
(F52) Pan-STARRS 2, Haleakala  (N20.707384 W156.255910)  US/Hawaii. 1.8-m
   Ritchey-Chrétien + CCD.
(G96) Mt. Lemmon Survey  (N32.442754 W110.788720)  US/Arizona.  Observers T.
   A. Pruyne, B. M. Africano, E. J. Christensen, G. A. Farneth, D. C. Fuls,
   A. R. Gibbs, A. D. Grauer, H. Gröller, J. A. Johnson, R. A. Kowalski, S.
   M. Larson, G. J. Leonard, D. Rankin, R. L. Seaman, F. C. Shelly. 1.5-m
   reflector + 10K CCD.

Orbital elements:  P10TUSh
   Perihelion 2019 Sep 20.046571 +/- 0.111 TT =  1:07:03 (JD 2458746.546571)
Epoch 2019 Nov  5.0 TT = JDT 2458792.5   Earth MOID: 0.0067   Ma: 0.0494
M  16.29568800 +/- 0.34             (J2000 ecliptic)          AutoNEOCP
n   0.35461309 +/- 0.00662          Peri.  302.79248 +/- 0.030
a   1.97681578 +/- 0.0246           Node    37.62492 +/- 0.010
e   0.5713538 +/- 0.00596           Incl.    6.30407 +/- 0.040
P   2.78                   H 27.0   G  0.15   U  9.4  
q 0.84735445 +/- 0.00125    Q 3.10627710 +/- 0.0508
From 10 observations 2019 Nov. 2-5; mean residual 0".24
Residuals in arcseconds: 
191102 F51  .04-  .06-    191105 G96  .07-  .23+    191105 F52  .25+  .20-    
191102 F51  .39-  .36+    191105 G96  .28+  .53+    191105 F52  .11-  .10-    
191102 F51  .25+  .24-    191105 G96  .17-  .10-    
191102 F51  .18+  .07-    191105 G96  .23-  .26-    

Ephemerides (geocentric):
Date (UTC) HH   RA              Dec         delta   r     elong  mag " sig PA
---- -- -- --  -------------   -----------  ------ ------ -----  --- ---- ---
2019 11 13 09  03 14 25.893   +30 53 14.42  .13193 1.1186 166.9 23.6 17.5 137
2019 11 13 10  03 14 24.305   +30 53 30.11  .13228 1.1189 167.0 23.6 17.6 137
2019 11 13 11  03 14 22.726   +30 53 45.66  .13263 1.1192 167.0 23.6 17.6 137
2019 11 13 12  03 14 21.154   +30 54 01.08  .13297 1.1196 167.0 23.6 17.7 137
2019 11 13 13  03 14 19.591   +30 54 16.36  .13332 1.1199 167.0 23.6 17.7 137
2019 11 13 14  03 14 18.035   +30 54 31.50  .13367 1.1202 167.0 23.6 17.8 137
2019 11 13 15  03 14 16.487   +30 54 46.50  .13402 1.1206 167.0 23.6 17.9 137
2019 11 13 16  03 14 14.946   +30 55 01.38  .13436 1.1209 167.0 23.6 17.9 137
2019 11 13 17  03 14 13.414   +30 55 16.11  .13471 1.1212 167.0 23.6 18.0 137
2019 11 13 18  03 14 11.889   +30 55 30.72  .13506 1.1216 167.0 23.6 18.0 137
2019 11 13 19  03 14 10.371   +30 55 45.19  .13541 1.1219 167.0 23.6 18.1 137
2019 11 13 20  03 14 08.861   +30 55 59.54  .13576 1.1222 167.0 23.7 18.2 137
2019 11 13 21  03 14 07.358   +30 56 13.75  .13610 1.1226 167.0 23.7 18.2 137
2019 11 13 22  03 14 05.863   +30 56 27.84  .13645 1.1229 167.1 23.7 18.3 137
2019 11 13 23  03 14 04.375   +30 56 41.80  .13680 1.1232 167.1 23.7 18.3 137
2019 11 14 00  03 14 02.895   +30 56 55.63  .13715 1.1236 167.1 23.7 18.4 137
2019 11 14 01  03 14 01.422   +30 57 09.33  .13750 1.1239 167.1 23.7 18.5 137
2019 11 14 02  03 13 59.956   +30 57 22.91  .13785 1.1243 167.1 23.7 18.5 136
2019 11 14 03  03 13 58.498   +30 57 36.36  .13820 1.1246 167.1 23.7 18.6 136
2019 11 14 04  03 13 57.046   +30 57 49.69  .13854 1.1249 167.1 23.7 18.6 136
2019 11 14 05  03 13 55.602   +30 58 02.90  .13889 1.1253 167.1 23.7 18.7 136
2019 11 14 06  03 13 54.165   +30 58 15.98  .13924 1.1256 167.1 23.7 18.7 136
2019 11 14 07  03 13 52.735   +30 58 28.95  .13959 1.1259 167.1 23.7 18.8 136
2019 11 14 08  03 13 51.312   +30 58 41.79  .13994 1.1263 167.1 23.7 18.9 136
2019 11 14 09  03 13 49.896   +30 58 54.52  .14029 1.1266 167.1 23.7 18.9 136
2019 11 14 10  03 13 48.488   +30 59 07.12  .14064 1.1269 167.1 23.7 19.0 136
2019 11 14 11  03 13 47.086   +30 59 19.61  .14099 1.1273 167.1 23.7 19.0 136
2019 11 14 12  03 13 45.691   +30 59 31.98  .14134 1.1276 167.1 23.7 19.1 136
2019 11 14 13  03 13 44.303   +30 59 44.23  .14169 1.1279 167.1 23.8 19.1 136
2019 11 14 14  03 13 42.921   +30 59 56.36  .14204 1.1283 167.2 23.8 19.2 136
2019 11 14 15  03 13 41.547   +31 00 08.39  .14239 1.1286 167.2 23.8 19.2 136
2019 11 14 16  03 13 40.179   +31 00 20.29  .14274 1.1290 167.2 23.8 19.3 136
2019 11 14 17  03 13 38.818   +31 00 32.09  .14309 1.1293 167.2 23.8 19.3 136
2019 11 14 18  03 13 37.464   +31 00 43.77  .14344 1.1296 167.2 23.8 19.4 136
2019 11 14 19  03 13 36.117   +31 00 55.34  .14379 1.1300 167.2 23.8 19.4 136
2019 11 14 20  03 13 34.776   +31 01 06.79  .14415 1.1303 167.2 23.8 19.5 136
2019 11 14 21  03 13 33.441   +31 01 18.14  .14450 1.1306 167.2 23.8 19.5 136
2019 11 14 22  03 13 32.114   +31 01 29.38  .14485 1.1310 167.2 23.8 19.6 136
2019 11 14 23  03 13 30.793   +31 01 40.50  .14520 1.1313 167.2 23.8 19.7 136
2019 11 15 00  03 13 29.478   +31 01 51.52  .14555 1.1317 167.2 23.8 19.7 136
2019 11 15 01  03 13 28.170   +31 02 02.43  .14590 1.1320 167.2 23.8 19.8 136
2019 11 15 02  03 13 26.868   +31 02 13.24  .14625 1.1323 167.2 23.8 19.8 136
2019 11 15 03  03 13 25.573   +31 02 23.93  .14660 1.1327 167.2 23.8 19.9 136
2019 11 15 04  03 13 24.284   +31 02 34.52  .14696 1.1330 167.2 23.8 19.9 136
2019 11 15 05  03 13 23.002   +31 02 45.01  .14731 1.1333 167.2 23.8 20.0 136
2019 11 15 06  03 13 21.726   +31 02 55.39  .14766 1.1337 167.2 23.8 20.0 136
2019 11 15 07  03 13 20.456   +31 03 05.67  .14801 1.1340 167.2 23.9 20.1 136
2019 11 15 08  03 13 19.192   +31 03 15.84  .14837 1.1344 167.2 23.9 20.1 136